IW1PPB-3 Weather Reports


Display with metric or nautical units.
time (UTC)temp
F
wind
direction
speed
MPH
gust
MPH
rain 1hr
in
rain 24hr
in
rain mn
in
humidity
%
barometer
mb
20260506223346 60 360 4.0 5.0 0.00 0.91 0.00 82 1010.1
20260506222347 60 360 2.0 5.0 0.00 0.91 0.00 82 1010.1
20260506221331 60 360 4.0 6.0 0.00 0.91 0.00 82 1010.2
20260506220337 60 360 4.0 6.0 0.00 0.91 0.00 81 1010.2
20260506215335 60 360 0.0 3.0 0.00 0.91 0.23 80 1010.1
20260506214340 60 360 1.0 5.0 0.00 0.91 0.23 80 1010.1
20260506213340 61 360 2.0 4.0 0.00 0.91 0.23 79 1010.1
20260506212351 61 360 2.0 8.0 0.00 0.91 0.23 78 1009.9
20260506211336 61 360 2.0 4.0 0.00 0.91 0.23 78 1009.9
20260506210343 61 360 2.0 4.0 0.00 0.91 0.23 78 1009.9
20260506205332 61 360 4.0 6.0 0.00 0.91 0.23 77 1009.8
20260506204333 62 360 2.0 4.0 0.00 0.91 0.23 76 1009.7
20260506203331 63 360 3.0 5.0 0.00 0.91 0.23 75 1009.5
20260506202335 63 360 0.0 2.0 0.00 0.91 0.23 73 1009.3
20260506201333 63 360 0.0 4.0 0.00 0.91 0.23 73 1009.2
20260506200338 63 360 4.0 9.0 0.00 0.91 0.23 72 1009.1
20260506195336 64 360 11.0 17.0 0.00 0.91 0.23 73 1008.9
20260506194339 64 360 11.0 17.0 0.00 0.91 0.23 75 1008.7
20260506193324 64 360 9.0 21.0 0.00 0.91 0.23 80 1008.5
20260506192333 65 360 15.0 23.0 0.00 0.91 0.23 79 1008.2
20260506191327 65 360 15.0 21.0 0.00 0.91 0.23 78 1008.1
20260506190327 65 360 12.0 18.0 0.00 0.91 0.23 78 1008.1
20260506185340 65 360 8.0 16.0 0.00 0.91 0.23 77 1008.0
20260506184340 65 360 10.0 17.0 0.00 0.91 0.23 77 1007.9
20260506183335 65 360 13.0 21.0 0.00 0.91 0.23 79 1007.8
20260506182336 64 360 16.0 24.0 0.00 0.91 0.23 79 1007.7
20260506181346 64 360 17.0 25.0 0.00 0.91 0.23 79 1007.6
20260506180330 64 360 18.0 25.0 0.00 0.91 0.23 80 1007.5
20260506175339 65 360 18.0 29.0 0.00 0.91 0.23 80 1007.4
20260506174326 65 360 18.0 28.0 0.00 0.91 0.23 80 1007.2
20260506173325 66 360 18.0 25.0 0.00 0.91 0.23 77 1007.0
20260506172333 66 360 15.0 24.0 0.00 0.91 0.23 75 1007.1
20260506171341 66 360 14.0 27.0 0.00 0.91 0.23 71 1007.1
20260506170325 67 360 17.0 26.0 0.00 0.91 0.23 69 1007.0
20260506165332 67 360 17.0 31.0 0.00 0.94 0.23 68 1006.9
20260506164341 67 360 18.0 25.0 0.00 0.94 0.23 69 1006.8
20260506163331 66 360 19.0 29.0 0.00 0.94 0.23 69 1006.8
20260506162330 67 360 20.0 29.0 0.00 0.94 0.23 70 1006.8
20260506161332 67 360 18.0 28.0 0.00 0.94 0.23 69 1006.6
20260506160346 67 360 19.0 28.0 0.00 0.94 0.23 70 1006.6
20260506155323 67 360 22.0 33.0 0.00 0.94 0.23 71 1006.5
20260506154338 67 360 21.0 29.0 0.00 0.94 0.23 72 1006.6
20260506153340 66 360 20.0 32.0 0.00 0.94 0.23 75 1006.5
20260506152324 67 360 20.0 29.0 0.00 0.94 0.23 74 1006.6
20260506151332 67 360 19.0 31.0 0.00 0.94 0.23 73 1006.5
20260506150344 66 360 20.0 32.0 0.00 0.94 0.23 76 1006.5
20260506145342 66 360 19.0 32.0 0.00 0.94 0.23 75 1006.6
20260506144333 66 360 21.0 34.0 0.00 0.94 0.23 77 1006.7
20260506143328 65 360 23.0 38.0 0.00 0.94 0.23 78 1006.7
20260506142328 65 360 23.0 37.0 0.00 0.94 0.23 80 1006.6
20260506141336 65 360 27.0 38.0 0.00 0.94 0.23 79 1006.9
20260506140341 66 360 22.0 36.0 0.00 0.94 0.23 77 1006.8
20260506135325 65 360 21.0 38.0 0.00 0.94 0.23 77 1006.8
20260506134324 65 360 26.0 38.0 0.00 0.94 0.23 76 1006.8
20260506133338 66 360 20.0 31.0 0.00 0.94 0.23 75 1006.9
20260506132348 67 360 18.0 26.0 0.00 0.94 0.23 72 1006.9
20260506131336 67 360 22.0 32.0 0.00 0.94 0.23 72 1007.0
20260506130336 67 360 16.0 27.0 0.00 0.94 0.23 72 1007.1
20260506125328 67 360 17.0 33.0 0.00 0.94 0.23 74 1007.0
20260506124331 68 360 14.0 29.0 0.00 0.94 0.23 67 1007.0
20260506123339 68 360 17.0 25.0 0.00 0.94 0.23 66 1007.1
20260506122338 67 360 15.0 27.0 0.00 0.94 0.23 71 1007.1
20260506121339 66 360 19.0 30.0 0.00 0.94 0.23 72 1007.0
20260506120325 66 360 21.0 32.0 0.00 0.94 0.23 75 1007.1
20260506115335 65 360 22.0 40.0 0.00 0.94 0.23 78 1007.2
20260506114339 65 360 31.0 40.0 0.00 0.94 0.23 78 1007.3
20260506113330 65 360 22.0 37.0 0.00 0.94 0.23 77 1007.3
20260506112337 65 360 25.0 36.0 0.00 0.94 0.23 76 1007.2
20260506111347 66 360 21.0 32.0 0.00 0.94 0.23 73 1007.5
20260506110330 65 360 19.0 41.0 0.00 0.94 0.23 74 1007.5
20260506105342 65 360 24.0 31.0 0.00 0.94 0.23 78 1007.5
20260506104327 65 360 18.0 31.0 0.00 0.94 0.23 77 1007.6
20260506103328 65 360 19.0 29.0 0.00 0.94 0.23 77 1007.7
20260506102333 65 360 18.0 29.0 0.00 0.94 0.23 77 1007.8
20260506101341 65 360 16.0 27.0 0.00 0.94 0.23 78 1007.8
20260506100326 64 360 17.0 27.0 0.00 0.94 0.23 78 1007.9
20260506095324 64 360 18.0 27.0 0.00 0.94 0.23 78 1007.8
20260506094338 64 360 20.0 27.0 0.00 0.94 0.23 77 1007.8
20260506093340 64 360 19.0 27.0 0.00 0.94 0.23 79 1007.9
20260506092322 63 360 17.0 25.0 0.00 0.94 0.23 80 1007.9
20260506091333 63 360 19.0 27.0 0.00 0.94 0.23 78 1007.9
20260506090335 63 360 16.0 21.0 0.00 0.94 0.23 77 1007.8
20260506085331 64 360 14.0 18.0 0.00 1.02 0.23 75 1008.0
20260506084332 64 360 10.0 15.0 0.00 1.02 0.23 77 1008.0
20260506083345 64 360 9.0 16.0 0.00 1.02 0.23 77 1008.0
20260506082326 63 360 11.0 15.0 0.00 1.02 0.23 76 1008.0
20260506081340 63 360 10.0 15.0 0.00 1.02 0.23 76 1008.0
20260506080332 63 360 11.0 16.0 0.00 1.02 0.23 77 1008.0
20260506073344 63 360 8.0 15.0 0.00 1.02 0.23 77 1007.9
20260506072327 62 360 9.0 14.0 0.00 1.02 0.23 80 1007.9
20260506071336 62 360 5.0 10.0 0.00 1.02 0.23 82 1007.8
20260506070327 62 360 4.0 11.0 0.00 1.02 0.23 82 1007.6
20260506062351 59 360 4.0 5.0 0.00 1.02 0.23 87 1007.2
20260506061337 59 360 1.0 5.0 0.04 1.02 0.23 88 1007.1
20260506060322 58 360 5.0 9.0 0.04 1.02 0.23 88 1007.1
20260506051340 58 360 2.0 8.0 0.43 0.98 0.22 89 1007.6
20260506050331 58 360 4.0 5.0 0.43 0.98 0.22 88 1007.9
20260506044332 58 360 8.0 11.0 0.24 0.83 0.17 88 1008.2
20260506043344 58 360 8.0 14.0 0.04 0.63 0.12 87 1008.3
20260506042327 58 360 7.0 11.0 0.04 0.63 0.12 87 1008.1
20260506041329 58 360 2.0 4.0 0.00 0.59 0.11 88 1007.9
20260506040335 58 360 1.0 4.0 0.00 0.59 0.11 88 1008.0
20260506035329 58 360 2.0 4.0 0.00 1.97 0.11 88 1008.1
20260506034334 58 360 3.0 4.0 0.00 1.97 0.11 88 1008.2
20260506033339 58 360 2.0 5.0 0.00 1.97 0.11 87 1008.3
20260506032329 58 360 3.0 4.0 0.00 1.97 0.11 86 1008.3
20260506031325 58 360 2.0 6.0 0.00 1.97 0.11 85 1008.5
20260506030335 58 360 2.0 6.0 0.00 1.97 0.11 85 1008.5
20260506025349 58 360 1.0 4.0 0.00 3.39 0.11 84 1008.5
20260506024337 59 360 1.0 3.0 0.00 3.39 0.11 84 1008.2
20260506023345 59 360 4.0 6.0 0.00 3.39 0.11 84 1008.3
20260506022335 59 360 4.0 9.0 0.00 3.39 0.11 84 1008.5
20260506021335 59 360 3.0 9.0 0.00 3.39 0.11 83 1008.6
20260506020333 59 360 5.0 9.0 0.00 3.39 0.11 84 1008.7
20260506015338 59 360 3.0 5.0 0.00 5.55 0.11 84 1008.9
20260506014327 59 360 2.0 4.0 0.00 5.55 0.11 85 1009.2
20260506013343 59 360 3.0 5.0 0.00 5.55 0.11 85 1009.2
20260506012325 59 360 4.0 6.0 0.00 5.55 0.11 85 1009.2
20260506011332 59 360 3.0 5.0 0.04 5.55 0.11 86 1009.2
20260506010344 59 360 4.0 5.0 0.12 5.55 0.11 87 1009.3
20260506005330 59 360 4.0 10.0 0.20 7.36 0.11 87 1009.5
20260506004341 59 360 8.0 11.0 0.35 7.36 0.11 88 1009.6
20260506003326 59 360 3.0 9.0 0.43 7.36 0.11 88 1009.5
20260506002328 59 360 6.0 10.0 0.43 7.36 0.11 87 1009.9
20260506001325 59 360 5.0 8.0 0.39 7.32 0.10 86 1010.0
20260506000331 60 360 3.0 5.0 0.31 7.24 0.08 86 1010.6
20260505235344 60 360 3.0 11.0 0.24 8.74 0.06 84 1010.7
20260505234330 60 360 6.0 9.0 0.08 8.58 0.02 82 1010.6
20260505233350 61 360 3.0 9.0 0.00 8.50 0.00 81 1010.5
20260505232332 60 360 6.0 9.0 0.00 8.50 0.00 81 1010.5
20260505231338 60 360 4.0 5.0 0.00 8.50 0.00 82 1010.5
20260505230329 60 360 3.0 4.0 0.00 8.50 0.00 82 1010.6
20260505225333 60 360 3.0 4.0 0.00 1.05 0.00 83 1010.5
20260505224323 60 360 2.0 3.0 0.00 1.05 0.00 83 1010.8